DW5204 Weather Reports


time (UTC)temp
F
wind
direction
speed
knots
gust
knots
rain 1hr
in
rain 24hr
in
rain mn
in
humidity
%
barometer
mb
20260509090959 71 80 0.0 0.0 0.00 0.00 0.00 89 1008.6
20260509090456 71 90 1.7 1.7 0.00 0.00 0.00 89 1008.5
20260509085954 71 14 3.5 4.3 0.00 0.00 0.00 89 1008.6
20260509085450 71 49 2.6 2.6 0.00 0.00 0.00 89 1008.1
20260509084947 71 29 4.3 5.2 0.00 0.00 0.00 89 1008.2
20260509084444 71 32 1.7 1.7 0.00 0.00 0.00 89 1007.5
20260509083941 71 149 4.3 6.1 0.00 0.00 0.00 89 1007.0
20260509083438 71 185 5.2 7.0 0.00 0.00 0.00 89 1006.9
20260509082929 71 162 6.1 8.7 0.00 0.00 0.00 89 1006.8
20260509082426 71 165 5.2 6.1 0.00 0.00 0.00 89 1006.9
20260509081923 71 104 10.4 13.9 0.00 0.00 0.00 89 1007.4
20260509081421 71 208 4.3 6.1 0.00 0.00 0.00 89 1007.4
20260509080918 71 181 5.2 7.0 0.00 0.00 0.00 89 1007.3
20260509080416 71 176 7.0 8.7 0.00 0.00 0.00 90 1007.4
20260509075914 71 137 5.2 6.1 0.00 0.00 0.00 90 1007.8
20260509075410 71 119 4.3 7.0 0.00 0.00 0.00 90 1008.1
20260509074908 70 190 5.2 7.8 0.00 0.00 0.00 90 1008.5
20260509074406 70 180 4.3 6.1 0.00 0.00 0.00 90 1008.7
20260509073901 70 190 4.3 6.1 0.00 0.00 0.00 90 1008.9
20260509073358 70 163 2.6 4.3 0.00 0.00 0.00 90 1008.8
20260509072854 70 111 3.5 6.1 0.00 0.00 0.00 90 1009.3
20260509072351 70 154 1.7 2.6 0.00 0.00 0.00 90 1009.6
20260509071848 70 162 6.1 7.0 0.00 0.00 0.00 90 1009.7
20260509071345 70 191 2.6 4.3 0.00 0.00 0.00 90 1009.9
20260509070842 70 213 4.3 5.2 0.00 0.00 0.00 90 1009.8
20260509070338 70 199 2.6 2.6 0.00 0.00 0.00 90 1010.0
20260509065835 70 129 3.5 4.3 0.00 0.00 0.00 90 1010.2
20260509065331 70 77 1.7 1.7 0.00 0.00 0.00 89 1010.2
20260509064827 70 195 4.3 5.2 0.00 0.00 0.00 89 1010.0
20260509064325 70 215 4.3 6.1 0.00 0.00 0.00 89 1010.1
20260509063822 70 206 3.5 4.3 0.00 0.00 0.00 88 1010.4
20260509063318 70 263 1.7 1.7 0.00 0.00 0.00 88 1010.5
20260509062816 70 149 2.6 4.3 0.00 0.00 0.00 88 1010.4
20260509062313 70 74 1.7 1.7 0.00 0.00 0.00 88 1010.0
20260509061810 70 151 2.6 2.6 0.00 0.00 0.00 88 1010.0
20260509061308 70 170 4.3 7.0 0.00 0.00 0.00 88 1009.7
20260509060805 70 91 0.9 1.7 0.00 0.00 0.00 87 1010.2
20260509060301 70 220 1.7 1.7 0.00 0.00 0.00 87 1009.8
20260509055757 70 122 3.5 5.2 0.00 0.00 0.00 87 1009.7
20260509055252 70 184 1.7 2.6 0.00 0.00 0.00 87 1009.9
20260509054749 70 183 1.7 1.7 0.00 0.00 0.00 87 1010.0
20260509054246 70 99 2.6 4.3 0.00 0.00 0.00 86 1009.7
20260509053745 71 165 3.5 5.2 0.00 0.00 0.00 86 1010.0
20260509053242 71 92 1.7 1.7 0.00 0.00 0.00 85 1010.4
20260509052740 71 118 1.7 1.7 0.00 0.00 0.00 84 1010.6
20260509052237 72 207 1.7 1.7 0.00 0.00 0.00 84 1010.8
20260509051734 72 125 0.9 1.7 0.00 0.00 0.00 83 1011.0
20260509051232 72 234 0.9 1.7 0.00 0.00 0.00 83 1010.7
20260509050728 72 176 1.7 1.7 0.00 0.00 0.00 82 1011.1
20260509050225 72 99 1.7 1.7 0.00 0.00 0.00 82 1011.5
20260509040223 73 94 2.6 5.2 0.00 0.23 0.23 80 1009.9
20260509035719 73 94 2.6 5.2 0.00 0.23 0.23 80 1009.9
20260509035217 73 83 1.7 2.6 0.00 0.23 0.23 80 1009.8
20260509034714 73 145 3.5 5.2 0.00 0.23 0.23 80 1009.5
20260509034211 73 111 7.0 9.6 0.00 0.23 0.23 79 1009.6
20260509033708 73 158 6.1 7.0 0.00 0.23 0.23 79 1009.4
20260509033205 73 181 5.2 7.0 0.00 0.23 0.23 79 1009.3
20260509032702 73 153 5.2 6.1 0.00 0.23 0.23 79 1009.8
20260509032159 74 108 1.7 1.7 0.00 0.23 0.23 78 1010.3
20260509031657 73 88 0.0 0.0 0.00 0.23 0.23 78 1010.7
20260509031154 73 83 0.0 0.0 0.00 0.23 0.23 78 1010.8
20260509030652 73 74 0.0 0.0 0.00 0.23 0.23 78 1010.8
20260509030149 73 66 0.0 0.0 0.00 0.23 0.23 78 1010.8
20260509025645 73 72 0.0 0.0 0.00 0.23 0.23 78 1010.5
20260509025141 73 83 3.5 4.3 0.00 0.23 0.23 78 1010.6
20260509024636 73 93 0.9 1.7 0.00 0.23 0.23 78 1010.0
20260509024133 73 117 2.6 2.6 0.00 0.23 0.23 77 1010.0
20260509023631 73 123 1.7 1.7 0.00 0.23 0.23 78 1009.7
20260509023127 73 95 0.0 0.9 0.00 0.23 0.23 78 1009.6
20260509022623 73 97 0.9 0.9 0.00 0.23 0.23 78 1009.5
20260509022122 73 119 0.0 0.0 0.00 0.23 0.23 78 1009.3
20260509021618 73 161 2.6 2.6 0.00 0.23 0.23 78 1009.0
20260509021115 73 212 4.3 5.2 0.00 0.23 0.23 77 1008.8
20260509020614 73 160 7.8 8.7 0.00 0.23 0.23 77 1008.6
20260509020110 73 207 2.6 7.0 0.00 0.23 0.23 77 1008.6
20260509015609 73 166 2.6 4.3 0.00 0.23 0.23 77 1008.6
20260509015106 74 190 2.6 2.6 0.00 0.23 0.23 76 1008.7
20260509014603 74 115 2.6 2.6 0.00 0.23 0.23 76 1008.8
20260509014059 74 196 2.6 2.6 0.00 0.23 0.23 75 1008.7
20260509013556 74 216 1.7 2.6 0.00 0.23 0.23 75 1008.6
20260509013051 74 104 1.7 2.6 0.00 0.23 0.23 75 1008.6
20260509012549 75 189 1.7 1.7 0.00 0.23 0.23 74 1008.8
20260509012045 75 161 4.3 7.0 0.00 0.23 0.23 74 1008.7
20260509011543 75 204 5.2 6.1 0.00 0.23 0.23 73 1008.9
20260509011040 75 116 2.6 2.6 0.00 0.23 0.23 72 1008.8
20260509010538 75 192 4.3 5.2 0.00 0.23 0.23 72 1008.8
20260509010035 75 226 4.3 5.2 0.00 0.23 0.23 72 1008.6
20260509005533 76 172 4.3 5.2 0.00 0.23 0.23 72 1008.9
20260509005033 76 214 3.5 5.2 0.00 0.23 0.23 71 1008.7
20260509004530 76 157 3.5 5.2 0.00 0.23 0.23 71 1008.6
20260509004026 76 163 5.2 7.0 0.00 0.23 0.23 71 1008.3
20260509003525 76 111 4.3 6.1 0.00 0.23 0.23 70 1008.1
20260509003022 77 148 3.5 5.2 0.00 0.23 0.23 70 1008.0
20260509002519 77 174 3.5 5.2 0.00 0.23 0.23 69 1008.0
20260509002016 77 104 1.7 1.7 0.00 0.23 0.23 69 1008.0
20260509001514 77 218 5.2 7.0 0.00 0.23 0.23 68 1008.1
20260509001009 77 182 4.3 7.0 0.00 0.23 0.23 68 1008.0
20260509000508 77 191 4.3 6.1 0.00 0.23 0.23 67 1008.0
20260509000004 77 99 5.2 7.0 0.00 0.23 0.23 68 1008.1
20260508235502 78 167 7.0 8.7 0.00 0.23 0.23 67 1008.2
20260508234958 78 191 2.6 6.1 0.00 0.23 0.23 66 1008.3
20260508234455 78 123 2.6 6.1 0.00 0.23 0.23 66 1008.5
20260508233952 78 236 5.2 6.1 0.00 0.23 0.23 66 1008.5
20260508233452 79 154 3.5 4.3 0.00 0.23 0.23 66 1008.6
20260508232948 80 194 2.6 2.6 0.00 0.23 0.23 64 1008.6
20260508232445 79 223 2.6 5.2 0.00 0.23 0.23 63 1008.3
20260508231942 79 160 2.6 5.2 0.00 0.23 0.23 64 1008.5
20260508231439 79 191 7.0 8.7 0.00 0.23 0.23 65 1008.7
20260508230936 79 209 7.0 11.3 0.00 0.23 0.23 63 1008.5
20260508230433 80 181 5.2 6.1 0.00 0.23 0.23 64 1008.5
20260508225930 82 96 1.7 2.6 0.00 0.23 0.23 61 1008.3
20260508225427 82 196 3.5 5.2 0.00 0.23 0.23 61 1008.6
20260508224924 82 220 4.3 7.0 0.00 0.23 0.23 60 1008.3
20260508224422 82 227 4.3 5.2 0.00 0.23 0.23 60 1008.6
20260508223919 82 79 5.2 6.1 0.00 0.23 0.23 59 1008.6
20260508223417 82 228 4.3 6.1 0.00 0.23 0.23 59 1008.6
20260508222914 83 177 3.5 5.2 0.00 0.23 0.23 59 1008.6
20260508222411 84 230 3.5 5.2 0.00 0.23 0.23 57 1008.5
20260508221907 83 116 2.6 4.3 0.00 0.23 0.23 57 1008.8
20260508221403 82 160 3.5 5.2 0.00 0.23 0.23 58 1008.7
20260508220859 83 186 4.3 6.1 0.00 0.23 0.23 57 1008.8
20260508220356 83 117 2.6 4.3 0.00 0.23 0.23 58 1008.8
20260508215852 83 179 6.1 7.0 0.00 0.23 0.23 58 1008.5
20260508215349 84 185 4.3 5.2 0.00 0.23 0.23 57 1008.9
20260508214846 84 162 3.5 4.3 0.00 0.23 0.23 56 1008.6
20260508214344 83 221 2.6 2.6 0.00 0.23 0.23 58 1008.7
20260508213840 84 86 5.2 6.1 0.00 0.23 0.23 57 1008.8
20260508213337 82 90 4.3 5.2 0.00 0.23 0.23 58 1008.6
20260508212833 82 225 4.3 6.1 0.00 0.23 0.23 58 1008.8
20260508212330 81 119 1.7 2.6 0.00 0.23 0.23 59 1008.7
20260508211825 81 174 6.1 9.6 0.00 0.23 0.23 59 1008.6
20260508211321 81 182 4.3 6.1 0.00 0.23 0.23 58 1008.8
20260508210819 80 151 2.6 4.3 0.00 0.23 0.23 61 1008.9
20260508210315 81 177 6.1 7.8 0.00 0.23 0.23 60 1008.9
20260508205812 81 143 4.3 6.1 0.00 0.23 0.23 57 1009.4
20260508205308 81 106 3.5 5.2 0.00 0.23 0.23 59 1009.2
20260508204805 80 243 4.3 6.1 0.00 0.23 0.23 60 1009.6
20260508204302 78 241 3.5 5.2 0.00 0.23 0.23 63 1009.9
20260508203758 78 190 4.3 6.1 0.00 0.23 0.23 63 1010.4
20260508203254 78 227 7.0 8.7 0.00 0.23 0.23 64 1010.4
20260508202750 79 150 5.2 7.8 0.00 0.23 0.23 63 1010.5
20260508202247 79 226 7.0 7.8 0.00 0.23 0.23 62 1010.5
20260508201745 80 204 6.1 7.8 0.00 0.23 0.23 62 1010.5
20260508201241 80 211 7.8 8.7 0.00 0.23 0.23 60 1010.4
20260508200738 81 189 4.3 5.2 0.00 0.23 0.23 60 1010.3
20260508200234 81 246 6.1 8.7 0.00 0.23 0.23 60 1010.6
20260508195730 82 92 5.2 7.0 0.00 0.23 0.23 59 1010.5
20260508195227 81 147 5.2 6.1 0.00 0.23 0.23 59 1010.6
20260508194724 81 217 3.5 5.2 0.00 0.23 0.23 59 1010.7
20260508194220 82 214 6.1 8.7 0.00 0.23 0.23 57 1010.7
20260508193717 83 295 2.6 2.6 0.00 0.23 0.23 56 1010.8
20260508193214 83 205 5.2 7.0 0.00 0.23 0.23 54 1010.7
20260508192711 84 27 4.3 7.0 0.00 0.23 0.23 54 1010.8
20260508192208 84 251 2.6 4.3 0.00 0.23 0.23 53 1010.6
20260508191705 85 223 6.1 7.0 0.00 0.23 0.23 53 1010.9
20260508191201 84 207 3.5 5.2 0.00 0.23 0.23 53 1010.7
20260508190659 82 230 3.5 4.3 0.00 0.23 0.23 56 1010.8
20260508190155 86 252 4.3 5.2 0.00 0.23 0.23 50 1010.7
20260508185652 85 136 0.0 1.7 0.00 0.23 0.23 53 1011.2
20260508185149 85 264 4.3 5.2 0.00 0.23 0.23 51 1011.1
20260508184646 85 208 4.3 6.1 0.00 0.23 0.23 51 1010.9
20260508184144 84 183 2.6 2.6 0.00 0.23 0.23 54 1011.0
20260508183640 85 197 3.5 5.2 0.00 0.23 0.23 52 1010.9
20260508183136 85 107 2.6 2.6 0.00 0.23 0.23 52 1011.3
20260508182633 83 94 2.6 2.6 0.00 0.23 0.23 54 1011.3
20260508182129 85 56 2.6 4.3 0.00 0.23 0.23 51 1011.5
20260508181625 84 82 1.7 1.7 0.00 0.23 0.23 52 1011.8
20260508181123 84 115 3.5 5.2 0.00 0.23 0.23 50 1011.8
20260508180619 83 127 2.6 5.2 0.00 0.23 0.23 51 1011.9
20260508180116 82 223 1.7 2.6 0.00 0.23 0.23 52 1011.7
20260508175612 83 235 3.5 4.3 0.00 0.23 0.23 53 1011.9
20260508175109 81 168 2.6 4.3 0.00 0.23 0.23 53 1012.1
20260508174607 80 159 0.9 0.9 0.00 0.23 0.23 53 1012.1
20260508174103 82 195 2.6 4.3 0.00 0.23 0.23 53 1012.2
20260508173601 80 218 2.6 2.6 0.00 0.23 0.23 55 1012.1
20260508173056 79 163 6.1 7.0 0.00 0.23 0.23 56 1012.2
20260508172554 78 142 1.7 2.6 0.00 0.23 0.23 57 1012.2
20260508172050 78 176 5.2 7.0 0.00 0.23 0.23 58 1012.4
20260508171547 79 180 2.6 2.6 0.00 0.23 0.23 55 1012.6
20260508171043 78 17 3.5 4.3 0.00 0.23 0.23 55 1012.5
20260508170541 78 164 3.5 5.2 0.00 0.23 0.23 55 1012.8
20260508170038 79 129 2.6 2.6 0.00 0.23 0.23 55 1012.9
20260508165535 79 104 1.7 2.6 0.00 0.23 0.23 53 1013.0
20260508165032 77 190 0.9 2.6 0.00 0.23 0.23 57 1013.2
20260508164528 77 175 2.6 5.2 0.00 0.23 0.23 58 1013.2
20260508164025 77 114 1.7 2.6 0.00 0.23 0.23 58 1013.4
20260508163523 77 175 6.1 7.0 0.00 0.23 0.23 57 1013.4
20260508163019 74 143 2.6 5.2 0.00 0.23 0.23 60 1013.6
20260508162516 73 104 3.5 5.2 0.00 0.23 0.23 61 1013.8
20260508162013 73 216 2.6 4.3 0.00 0.23 0.23 63 1013.7
20260508161510 71 181 4.3 6.1 0.00 0.23 0.23 65 1013.8
20260508161007 72 93 2.6 4.3 0.00 0.23 0.23 65 1013.8
20260508160506 73 94 1.7 2.6 0.00 0.23 0.23 65 1013.9
20260508160002 73 113 1.7 1.7 0.00 0.23 0.23 64 1013.8
20260508155459 71 152 3.5 6.1 0.00 0.23 0.23 67 1013.8
20260508154956 71 113 2.6 4.3 0.00 0.23 0.23 68 1014.1
20260508154453 71 165 3.5 4.3 0.00 0.23 0.23 67 1014.3
20260508153950 70 136 2.6 2.6 0.00 0.23 0.23 68 1014.1
20260508153447 69 171 3.5 4.3 0.00 0.23 0.23 70 1014.1
20260508152943 69 129 0.9 1.7 0.00 0.23 0.23 71 1014.0
20260508152440 69 186 2.6 4.3 0.00 0.23 0.23 72 1014.5
20260508151936 69 189 3.5 4.3 0.00 0.23 0.23 69 1014.5
20260508151433 69 261 3.5 4.3 0.00 0.23 0.23 71 1014.5
20260508150929 69 121 0.9 1.7 0.00 0.23 0.23 74 1014.7
20260508150426 68 177 3.5 5.2 0.00 0.23 0.23 75 1014.2
20260508145922 68 120 2.6 2.6 0.00 0.23 0.23 75 1014.2
20260508145419 69 158 6.1 7.0 0.00 0.23 0.23 73 1014.6
20260508144915 68 127 0.0 0.9 0.00 0.23 0.23 77 1014.5
20260508144414 66 98 1.7 4.3 0.00 0.23 0.23 80 1014.5
20260508143911 66 145 3.5 4.3 0.00 0.23 0.23 80 1014.3
20260508143408 66 102 0.0 0.0 0.00 0.23 0.23 81 1014.9
20260508142904 66 105 1.7 1.7 0.00 0.23 0.23 80 1014.8
20260508142402 66 97 1.7 1.7 0.00 0.23 0.23 80 1015.0
20260508141858 66 106 0.0 0.9 0.00 0.23 0.23 82 1014.7
20260508141354 65 98 0.9 0.9 0.00 0.23 0.23 83 1014.8
20260508140852 64 92 0.9 0.9 0.00 0.23 0.23 86 1014.6
20260508140349 64 97 0.0 0.0 0.00 0.23 0.23 88 1015.0
20260508135844 63 89 0.0 0.0 0.00 0.23 0.23 90 1014.8
20260508135341 62 109 0.9 1.7 0.00 0.23 0.23 90 1014.9
20260508134837 62 120 0.0 0.0 0.00 0.23 0.23 92 1014.6
20260508134334 62 105 0.0 0.0 0.00 0.23 0.23 93 1014.6
20260508133831 62 99 0.9 0.9 0.00 0.23 0.23 94 1014.7
20260508133329 62 96 0.0 0.9 0.00 0.23 0.23 94 1014.7
20260508132826 61 96 0.9 0.9 0.00 0.23 0.23 95 1014.7
20260508132323 61 223 0.9 1.7 0.00 0.23 0.23 96 1015.0
20260508131820 61 134 1.7 1.7 0.00 0.23 0.23 95 1014.9
20260508131316 61 102 0.9 0.9 0.00 0.23 0.23 96 1014.8
20260508130812 60 105 0.9 1.7 0.00 0.23 0.23 96 1014.8
20260508130309 61 216 2.6 2.6 0.00 0.23 0.23 96 1014.8
20260508125805 60 117 1.7 4.3 0.00 0.23 0.23 96 1014.3
20260508125305 60 108 1.7 4.3 0.00 0.23 0.23 96 1014.3
20260508124800 60 165 1.7 2.6 0.00 0.23 0.23 96 1014.6
20260508124257 61 109 1.7 2.6 0.00 0.23 0.23 96 1014.7
20260508123755 60 107 0.0 0.9 0.00 0.23 0.23 96 1014.9
20260508123253 60 91 2.6 2.6 0.00 0.23 0.23 96 1014.6
20260508122749 60 89 0.0 0.9 0.00 0.23 0.23 97 1014.9
20260508122246 60 91 0.0 0.0 0.00 0.23 0.23 97 1015.8
20260508121743 60 199 0.0 0.0 0.00 0.23 0.23 96 1015.2
20260508121242 60 94 0.0 0.0 0.00 0.23 0.23 96 1014.8
20260508120738 60 140 2.6 2.6 0.00 0.23 0.23 96 1014.8
20260508120237 60 110 0.0 0.0 0.00 0.23 0.23 96 1014.9
20260508115734 60 86 0.0 0.0 0.00 0.23 0.23 96 1015.1
20260508115231 60 95 0.0 0.0 0.00 0.23 0.23 96 1015.0
20260508114727 60 85 0.0 0.0 0.00 0.23 0.23 96 1014.9
20260508114224 60 101 0.0 0.0 0.07 0.23 0.23 96 1015.1
20260508113721 60 104 0.0 0.0 0.07 0.23 0.23 96 1014.7
20260508113220 59 103 0.0 0.0 0.00 0.22 0.22 96 1014.9
20260508112715 60 86 0.0 0.0 0.12 0.22 0.22 96 1014.6
20260508112212 60 83 0.0 0.0 0.17 0.22 0.22 95 1014.6
20260508111709 60 151 2.6 2.6 0.05 0.20 0.20 95 1014.1
20260508111207 60 96 0.9 0.9 0.12 0.19 0.19 95 1014.6
20260508110704 60 159 1.7 2.6 0.12 0.19 0.19 95 1014.2
20260508110201 60 88 1.7 1.7 0.00 0.17 0.17 95 1014.1
20260508105700 60 123 1.7 1.7 0.07 0.17 0.17 94 1014.2
20260508105158 60 83 4.3 5.2 0.07 0.17 0.17 94 1014.0
20260508104655 60 130 2.6 4.3 0.07 0.16 0.16 94 1014.9
20260508104152 60 190 2.6 4.3 0.07 0.16 0.16 93 1015.1
20260508103649 60 113 0.0 0.0 0.17 0.15 0.15 93 1015.0
20260508103146 61 93 0.0 0.0 0.52 0.15 0.15 92 1014.7
20260508102643 61 124 1.7 2.6 0.66 0.12 0.12 91 1015.0
20260508102141 62 142 2.6 4.3 0.35 0.07 0.07 90 1013.9
20260508101638 62 184 2.6 2.6 0.00 0.01 0.01 87 1014.8
20260508101136 62 145 0.0 0.0 0.00 0.01 0.01 87 1014.6
20260508100633 62 342 0.9 1.7 0.00 0.01 0.01 87 1014.8
20260508100131 62 235 2.6 2.6 0.00 0.01 0.01 87 1014.5
20260508095627 62 113 1.7 1.7 0.00 0.01 0.01 88 1013.8
20260508095125 62 100 0.0 0.0 0.00 0.01 0.01 88 1013.7
20260508094621 62 123 2.6 2.6 0.00 0.01 0.01 88 1013.7
20260508094118 62 137 2.6 2.6 0.00 0.01 0.01 88 1013.6
20260508093615 61 102 0.0 0.0 0.00 0.01 0.01 88 1013.7
20260508093113 61 95 0.0 0.0 0.00 0.01 0.01 88 1013.7
20260508092610 61 118 0.0 0.0 0.00 0.01 0.01 88 1013.8
20260508092108 61 124 2.6 2.6 0.00 0.01 0.01 87 1014.0
20260508091605 61 101 0.0 0.0 0.00 0.01 0.01 87 1013.8